Regional Weather Roundup
Issued by NWS

Home | Current Version | Previous Version | Graphics & Text | Print | Product List | Glossary On
Versions: 1 2 3 4 5 6 7 8 9 10 11 12 13 14 15 16 17 18 19 20 21 22 23 24 25 26 27
000
ASUS45 KSLC 211810
RWRUT

UTAH REGIONAL WEATHER ROUNDUP
NATIONAL WEATHER SERVICE SALT LAKE CITY UT
1200 PM MDT THU SEP 21 2017

UTZ001>011-023>025-211900-

NORTHERN UTAH

CITY           SKY/WX    TMP DP  RH WIND       PRES   REMARKS
BRIGHAM CITY   CLOUDY    48  40  75 N9        29.80F
DUGWAY         PTSUNNY   56  37  49 NE7       29.77F
HILL AFB       PTSUNNY   51  41  69 N12       29.78F
LOGAN          CLOUDY    47  42  83 NW7       29.80S
OGDEN          CLOUDY    51  41  68 N10       29.78F
SALT LAKE CITY PTSUNNY   58  42  55 NW14      29.77S
TOOELE VALLEY  CLOUDY    50  39  66 NW10      29.80F
WENDOVER       LGT RAIN  45  40  82 N8        29.83R
HEBER CITY     PTSUNNY   66  34  30 SW23G31   29.69F
WEST JORDAN    CLOUDY    54  49  82 NW25G37   29.79S

$$

UTZ011>015-024>027-211900-

CENTRAL/NORTHEAST UTAH

CITY           SKY/WX    TMP DP  RH WIND       PRES   REMARKS
PROVO AIRPORT  MOSUNNY   61  44  53 NW17G23   29.74F
MOAB/CANYONLAN SUNNY     79  32  18 SW25G33   29.76F
DELTA          SUNNY     63  36  36 N3G16     29.73F
PRICE          MOSUNNY   70  35  27 S23G31    29.78F
RICHFIELD      SUNNY     73  37  27 S24G35    29.72F
ROOSEVELT      SUNNY     77  32  19 S13G23    29.74F
VERNAL         SUNNY     75  35  23 SW24G38   29.72F

$$

UTZ013>016-019>022-027-211900-

SOUTHERN UTAH

CITY           SKY/WX    TMP DP  RH WIND       PRES   REMARKS
BRYCE CANYON   SUNNY     63  33  32 S22G29    29.93F
CEDAR CITY     SUNNY     72  34  24 S31G41    29.75F
MILFORD        SUNNY     74  36  25 S36G46    29.71F
ST GEORGE      PTCLDY    84  37  18 SW24G35   29.68F
HANKSVILLE     SUNNY     79  30  17 SW16G29   29.78F
KANAB          SUNNY     75  37  25 S23G30    29.87F
BLANDING         N/A     71  31  23 S18G28    30.02F

$$

REGIONAL REPORTS     COLORADO/ARIZONA

CITY           SKY/WX    TMP DP  RH WIND       PRES   REMARKS
CRAIG, CO      SUNNY     76  23  14 SW29G45   29.81F
GRAND JUNCTION SUNNY     81  27  14 S24G30    29.80F
RIFLE, CO      SUNNY     80  18  10 SW17G32   29.82F
MONTROSE, CO   SUNNY     77  21  12 SW18G29   29.90F
CORTEZ, CO     SUNNY     75  24  15 SW20G26   29.99F
PAGE, AZ       SUNNY     80  38  22 S17G25    29.80F
GRAND CANYON   SUNNY     68  34  28 SW24G32   29.99F
KINGMAN, AZ    SUNNY     80  36  20 S26G32    29.81F
FLAGSTAFF, AZ  SUNNY     64  28  25 SW14G24   30.05F

$$

REGIONAL REPORTS    NEVADA/IDAHO/WYOMING

CITY           SKY/WX    TMP DP  RH WIND       PRES   REMARKS
LAS VEGAS, NV  MOSUNNY   79  41  25 SW23G35   29.69F
ELY, NY        CLOUDY    41  35  79 N20       29.82S
ELKO, NV       LGT RAIN  37  34  89 NE5       29.84F WCI  33
POCATELLO, ID  LGT RAIN  41  39  93 SW7       29.84S
BURLEY, ID     CLOUDY    43  39  86 S5        29.82F
FORT BRIDGER,    N/A     58  40  51 N5        29.80S
EVANSTON, WY   CLOUDY    57  39  51 W13G20    29.77F
ROCK SPRINGS,  SUNNY     66  29  24 S33G46    29.75S
KEMMERER, WY     N/A     52  37  58 W9        29.80S

$$




USA.gov is the U.S. government's official web portal to all federal, state and local government web resources and services.